When you browse on this site, cookies collect data to enhance your experience and personalize the content and advertising you see.
Visit our Privacy Policy to learn more. By continuing to use the site, you agree to this use of cookies and data.
  • In Portugal
  • List of Countries
  • For 7 days
  • Water Temperature
  • Satellite Maps
  • Weather Map
  • Weather Widgets
  • user-avatar
    Login

    Hourly Weather Olszyniec

    Today, 21 March, Thursday

    Time Temperature Precipitation Wind Pressure Humidity
    00:00 +2°C° 0 mm 2 mps 732 mmHg 68%
    01:00 +2°C° 0 mm 2 mps 732 mmHg 68%
    02:00 +2°C° 0 mm 2 mps 732 mmHg 69%
    03:00 +2°C° 0 mm 2 mps 732 mmHg 69%
    04:00 +2°C° 0 mm 2 mps 732 mmHg 70%
    05:00 +2°C° 0 mm 2 mps 732 mmHg 70%
    06:00 +2°C° 0 mm 2 mps 732 mmHg 71%
    07:00 +3°C° 0 mm 2 mps 732 mmHg 72%
    08:00 +5°C° 0 mm 2 mps 733 mmHg 68%
    09:00 +7°C° 0 mm 2 mps 733 mmHg 64%
    10:00 +9°C° 0 mm 2 mps 733 mmHg 60%
    11:00 +10°C° 0 mm 2 mps 733 mmHg 60%
    12:00 +12°C° 0 mm 2 mps 733 mmHg 59%
    13:00 +13°C° 0 mm 2 mps 733 mmHg 58%
    14:00 +13°C° 0 mm 2 mps 733 mmHg 59%
    15:00 +13°C° 0 mm 2 mps 732 mmHg 59%
    16:00 +13°C° 0 mm 2 mps 732 mmHg 60%
    17:00 +12°C° 0 mm 1 mps 732 mmHg 66%
    18:00 +10°C° 0 mm 1 mps 732 mmHg 73%
    19:00 +9°C° 0 mm 1 mps 732 mmHg 79%
    20:00 +8°C° 0 mm 1 mps 732 mmHg 81%
    21:00 +8°C° 0 mm 1 mps 732 mmHg 84%
    22:00 +7°C° 0 mm 1 mps 732 mmHg 86%
    23:00 +7°C° 0 mm 1 mps 732 mmHg 86%

    Tomorrow, 22 March, Friday

    Time Temperature Precipitation Wind Pressure Humidity
    00:00 +7°C° 0 mm 1 mps 732 mmHg 87%
    01:00 +7°C° 0 mm 1 mps 732 mmHg 88%
    02:00 +6°C° 0 mm 1 mps 732 mmHg 88%
    03:00 +6°C° 0 mm 1 mps 731 mmHg 88%
    04:00 +6°C° 0 mm 1 mps 731 mmHg 89%
    05:00 +6°C° 0 mm 1 mps 731 mmHg 88%
    06:00 +7°C° 0 mm 1 mps 732 mmHg 88%
    07:00 +7°C° 0 mm 1 mps 732 mmHg 87%
    08:00 +8°C° 0 mm 0 mps 732 mmHg 80%
    09:00 +10°C° 0 mm 0 mps 732 mmHg 74%
    10:00 +12°C° 0 mm 0 mps 732 mmHg 67%
    11:00 +14°C° 0 mm 1 mps 732 mmHg 64%
    12:00 +15°C° 0 mm 1 mps 732 mmHg 61%
    13:00 +16°C° 0 mm 2 mps 732 mmHg 57%
    14:00 +16°C° 0 mm 2 mps 731 mmHg 57%
    15:00 +16°C° 0 mm 2 mps 731 mmHg 57%
    16:00 +16°C° 0 mm 2 mps 730 mmHg 58%
    17:00 +14°C° 0 mm 1 mps 730 mmHg 64%
    18:00 +13°C° 0 mm 1 mps 730 mmHg 71%
    19:00 +11°C° 0 mm 1 mps 730 mmHg 78%
    20:00 +10°C° 0 mm 1 mps 730 mmHg 80%
    21:00 +10°C° 0 mm 1 mps 730 mmHg 82%
    22:00 +9°C° 0 mm 1 mps 730 mmHg 85%
    23:00 +9°C° 0 mm 1 mps 729 mmHg 85%

    Day after tomorrow, 23 March, Saturday

    Time Temperature Precipitation Wind Pressure Humidity
    00:00 +9°C° 0 mm 1 mps 729 mmHg 85%
    01:00 +9°C° 0 mm 1 mps 729 mmHg 86%
    02:00 +8°C° 0 mm 1 mps 729 mmHg 86%
    03:00 +8°C° 0 mm 1 mps 728 mmHg 86%
    04:00 +7°C° 0 mm 2 mps 728 mmHg 86%
    05:00 +7°C° 0 mm 2 mps 728 mmHg 85%
    06:00 +7°C° 0 mm 2 mps 728 mmHg 84%
    07:00 +8°C° 0 mm 2 mps 728 mmHg 83%
    08:00 +10°C° 0 mm 2 mps 728 mmHg 74%
    09:00 +13°C° 0 mm 2 mps 728 mmHg 66%
    10:00 +15°C° 0 mm 2 mps 728 mmHg 58%
    11:00 +16°C° 0 mm 2 mps 728 mmHg 55%
    12:00 +17°C° 0 mm 2 mps 728 mmHg 51%
    13:00 +17°C° 0 mm 2 mps 727 mmHg 48%
    14:00 +18°C° 0 mm 2 mps 727 mmHg 48%
    15:00 +18°C° 0 mm 2 mps 727 mmHg 48%
    16:00 +18°C° 0 mm 2 mps 726 mmHg 49%
    17:00 +16°C° 0 mm 1 mps 726 mmHg 54%
    18:00 +15°C° 0 mm 1 mps 727 mmHg 60%
    19:00 +13°C° 0 mm 1 mps 727 mmHg 66%
    20:00 +13°C° 0 mm 1 mps 727 mmHg 68%
    21:00 +12°C° 0 mm 2 mps 727 mmHg 71%
    22:00 +12°C° 0 mm 2 mps 727 mmHg 73%
    23:00 +10°C° 0 mm 2 mps 727 mmHg 79%

    24 March, Sunday

    Time Temperature Precipitation Wind Pressure Humidity
    00:00 +9°C° 0 mm 2 mps 727 mmHg 85%
    01:00 +8°C° 0 mm 3 mps 727 mmHg 92%
    02:00 +8°C° 0.1 mm 3 mps 727 mmHg 91%
    03:00 +7°C° 0.1 mm 3 mps 727 mmHg 91%
    04:00 +7°C° 0.1 mm 3 mps 727 mmHg 91%
    05:00 +7°C° 0.1 mm 3 mps 727 mmHg 91%
    06:00 +6°C° 0.1 mm 2 mps 727 mmHg 90%
    07:00 +6°C° 0.1 mm 2 mps 727 mmHg 90%
    08:00 +6°C° 0.1 mm 2 mps 727 mmHg 87%
    09:00 +6°C° 0.1 mm 2 mps 727 mmHg 85%
    10:00 +8°C° 0.1 mm 1 mps 727 mmHg 82%
    11:00 +8°C° 0 mm 1 mps 727 mmHg 80%
    12:00 +9°C° 0 mm 1 mps 726 mmHg 79%
    13:00 +9°C° 0 mm 1 mps 726 mmHg 77%
    14:00 +10°C° 0 mm 1 mps 725 mmHg 76%
    15:00 +10°C° 0 mm 1 mps 725 mmHg 75%
    16:00 +9°C° 0 mm 2 mps 724 mmHg 75%
    17:00 +9°C° 0 mm 1 mps 724 mmHg 79%
    18:00 +9°C° 0 mm 1 mps 724 mmHg 83%
    19:00 +8°C° 0 mm 1 mps 724 mmHg 87%
    20:00 +7°C° 0 mm 1 mps 723 mmHg 87%
    21:00 +7°C° 0 mm 1 mps 723 mmHg 87%
    22:00 +6°C° 0 mm 0 mps 723 mmHg 87%
    23:00 +7°C° 0.2 mm 1 mps 723 mmHg 88%

    25 March, Monday

    Time Temperature Precipitation Wind Pressure Humidity
    00:00 +6°C° 0.2 mm 1 mps 722 mmHg 88%
    01:00 +5°C° 0.2 mm 2 mps 722 mmHg 88%
    02:00 +5°C° 0.5 mm 2 mps 722 mmHg 89%
    03:00 +4°C° 0.5 mm 2 mps 721 mmHg 90%
    04:00 +4°C° 0.5 mm 2 mps 721 mmHg 91%
    05:00 +4°C° 0 mm 2 mps 722 mmHg 88%
    06:00 +3°C° 0 mm 3 mps 722 mmHg 86%
    07:00 +3°C° 0 mm 3 mps 722 mmHg 84%
    08:00 +4°C° 0 mm 3 mps 722 mmHg 76%
    09:00 +5°C° 0 mm 4 mps 722 mmHg 69%
    10:00 +6°C° 0 mm 4 mps 723 mmHg 62%
    11:00 +6°C° 0.1 mm 5 mps 722 mmHg 60%
    12:00 +6°C° 0.1 mm 5 mps 722 mmHg 58%
    13:00 +7°C° 0.1 mm 6 mps 722 mmHg 56%
    14:00 +7°C° 0 mm 6 mps 721 mmHg 55%
    15:00 +5°C° 0 mm 7 mps 721 mmHg 54%
    16:00 +5°C° 0 mm 7 mps 720 mmHg 53%
    17:00 +4°C° 0.1 mm 7 mps 720 mmHg 58%
    18:00 +3°C° 0.1 mm 7 mps 720 mmHg 63%
    19:00 +2°C° 0.1 mm 7 mps 720 mmHg 68%
    20:00 +2°C° 0.1 mm 6 mps 720 mmHg 70%
    21:00 +1°C° 0.1 mm 6 mps 720 mmHg 71%
    22:00 0°C° 0.1 mm 5 mps 720 mmHg 73%
    23:00 -1°C° 0 mm 6 mps 720 mmHg 74%

    26 March, Tuesday

    Time Temperature Precipitation Wind Pressure Humidity
    00:00 -2°C° 0 mm 6 mps 720 mmHg 74%
    01:00 -2°C° 0 mm 6 mps 720 mmHg 75%
    02:00 -3°C° 0 mm 7 mps 720 mmHg 74%
    03:00 -3°C° 0 mm 7 mps 720 mmHg 72%
    04:00 -4°C° 0 mm 8 mps 719 mmHg 71%
    05:00 -4°C° 0 mm 8 mps 720 mmHg 70%
    06:00 -4°C° 0 mm 9 mps 720 mmHg 70%
    07:00 -4°C° 0 mm 9 mps 720 mmHg 69%
    08:00 -4°C° 0.3 mm 9 mps 720 mmHg 67%
    09:00 -4°C° 0.3 mm 10 mps 720 mmHg 65%
    10:00 -4°C° 0.3 mm 10 mps 721 mmHg 62%
    11:00 -3°C° 0.1 mm 10 mps 721 mmHg 59%
    12:00 -3°C° 0.1 mm 10 mps 722 mmHg 55%
    13:00 -2°C° 0.1 mm 10 mps 722 mmHg 51%
    14:00 -1°C° 0 mm 9 mps 722 mmHg 51%
    15:00 -1°C° 0 mm 9 mps 723 mmHg 51%
    16:00 -1°C° 0 mm 9 mps 723 mmHg 52%
    17:00 -2°C° 0 mm 8 mps 724 mmHg 56%
    18:00 -3°C° 0 mm 7 mps 724 mmHg 59%
    19:00 -4°C° 0 mm 6 mps 725 mmHg 63%
    20:00 -4°C° 0 mm 6 mps 725 mmHg 65%
    21:00 -4°C° 0 mm 6 mps 726 mmHg 66%
    22:00 -5°C° 0 mm 6 mps 726 mmHg 67%
    23:00 -5°C° 0 mm 6 mps 726 mmHg 68%
    Show more